Vertical_Velocity
-1 1 -2 -0 -2 -3 -3 -4 -2 1 -0 -4 -1 -1 -2 -1 -3 -3 -1 -1 -3 1 0 1 0 3 3 3 1 1 1 -6 4 -21 7 -1 -8 -2 -3 -17 5 33 -1 -9 -13
1 0 -2 -0 -2 -2 -4 -3 -1 -1 2 -2 0 -2 -2 -2 -3 -2 1 -1 1 -4 -2 -0 1 3 2 2 3 3 -0 19 -19 -15 31 5 -13 -2 0 -2 4 6 -8 -5 -10
-1 1 -1 -2 -3 -1 -7 -0 -1 -0 2 -4 2 -3 1 -2 -3 0 -2 -3 -0 4 1 -1 -0 4 1 4 1 3 -1 11 7 64 -3 -10 -12 -2 4 19 6 8 -4 -6 5
0 1 -3 2 -3 -0 -6 -0 -3 -2 -1 0 -1 -3 2 -0 -3 -2 1 -0 3 0 1 3 2 2 4 3 2 0 -6 1 -17 -19 -11 -9 -3 -8 32 3 16 3 -5 -7 -0
-2 -0 -2 4 -2 -2 -6 -2 2 -1 -1 -1 2 -1 0 -1 -1 1 1 0 0 0 1 1 0 3 6 2 2 8 -6 -2 -6 -12 -5 -8 5 99 2 2 18 4 -3 -2 -0
1 -1 1 0 -3 -1 -4 -2 3 2 -0 -4 -2 -1 -1 -0 -2 1 2 0 0 -2 -2 -0 1 6 1 2 3 4 -2 -0 -4 -7 1 -3 1 3 -2 1 -1 -4 -2 1 -0
-0 -1 1 -2 3 -3 -3 -5 1 1 -4 -1 -2 -2 0 1 -1 4 1 -0 -2 -2 1 -1 2 4 2 -4 4 -0 5 5 1 0 -12 18 -4 -1 1 -1 -1 -5 1 1 -2
1 -2 2 1 -2 1 -4 -8 2 1 -1 -4 -3 -2 1 -3 0 3 -1 -0 -2 -2 3 4 -1 -4 -6 -0 5 -2 -4 7 -4 -1 -1 -6 -4 -2 -0 4 -2 -2 -1 -3 -2
-0 -0 2 -3 -2 -1 -2 -1 -2 0 -0 -5 -4 1 -1 -3 -1 1 3 -2 -2 1 6 4 5 1 2 -1 -1 -2 -0 14 2 1 -2 -7 -6 0 -1 -1 -6 -2 -4 -1 -2
-1 -0 1 -1 3 -0 -4 -0 -2 1 -2 -5 -0 1 -1 -2 -3 1 2 -1 -4 1 -0 4 5 5 2 -1 2 5 24 4 7 -1 0 3 -6 -1 -0 -1 -2 -3 -2 -3 -3
-1 1 -0 -1 3 -2 -1 -2 -1 -0 -5 -5 1 -0 -1 -0 -0 1 -1 -0 -3 -4 6 -1 1 0 10 -5 7 16 7 7 6 1 -2 1 0 -2 -2 -1 -1 -2 -2 -1 -2
-1 0 0 -1 1 -2 -1 -1 -2 5 -4 -4 1 1 -2 -0 -5 -2 -1 0 2 5 -9 -3 -4 4 14 4 2 -1 8 10 -8 -2 -6 -2 -1 -3 -3 -2 -2 -3 -1 -1 2
-1 4 2 -4 -2 1 -2 -2 -5 3 -2 -4 -1 1 -3 1 -1 1 -0 2 9 17 12 2 16 8 2 3 -5 -3 4 11 10 -6 -10 12 9 -6 -6 -4 -1 1 1 -0 0
2 2 2 -0 -0 1 -0 -4 -5 0 1 -5 -1 -1 -3 0 -3 -7 -3 -2 -0 13 5 2 -2 5 -0 2 7 4 -0 7 -10 -4 -7 -12 -5 5 9 -2 -3 -0 0 1 1
5 0 1 8 -1 -5 3 -5 -0 3 3 -12 -4 -2 -2 0 2 1 -3 0 1 -0 -6 43 3 1 10 46 -8 8 10 -3 -5 -9 91 -7 -11 -21 -36 6 -2 -0 0 0 1
3 -3 3 5 1 -0 4 -2 -1 2 -3 -7 -3 -3 -2 -1 1 0 -7 -1 -2 -3 1 -8 8 -12 21 -5 -6 -4 -5 -4 -6 1 -19 -9 17 57 2 1 -7 -1 -1 -1 -2
3 0 4 0 -4 2 3 -2 -0 -4 -1 -1 -2 -5 -1 0 -2 -1 -7 -4 -5 -1 0 2 -1 -4 -3 -2 -2 -1 -3 5 4 7 -17 5 -9 -14 54 2 -4 -0 -5 -1 -1
4 2 -3 -0 -0 -3 4 -4 -3 0 1 3 -3 -4 -1 -1 -1 -1 -2 -4 -5 9 3 -6 -16 -4 -3 -0 2 -2 5 -1 15 -3 -5 -9 -7 15 -15 -7 -2 -4 -0 -0 -1
-2 4 5 4 1 -2 -1 -5 -2 3 7 2 -1 -3 -2 -1 -3 -1 0 -0 -1 -8 44 24 54 2 -4 -2 0 -2 1 -7 -9 1 -4 -2 -5 -13 5 -3 -0 0 0 -0 0
9 4 11 -1 3 1 -6 8 -6 -5 8 -4 -0 -3 0 -0 -1 -1 -1 -1 -6 -6 -9 -8 -2 -0 -1 -1 0 1 -7 2 1 -3 -3 19 0 12 2 0 -1 0 -0 0 -0
9 -3 -2 2 -0 -6 0 1 -5 3 3 -5 -0 -1 -2 -1 0 1 1 -4 -0 -3 0 -0 2 -7 -3 -0 3 1 -1 3 1 -1 2 1 13 2 1 2 2 2 -0 -3 -3
11 -8 9 -0 -7 3 1 -1 -6 7 -2 -4 -4 -2 -0 1 1 -1 1 1 -3 -1 0 -1 -0 -7 2 -5 -0 1 1 -1 0 -1 -0 -2 4 3 -0 -1 -0 -2 -2 -3 -3
8 -2 -4 -4 -16 3 5 4 -12 8 -3 -1 -0 -2 -2 0 -1 -1 0 3 -1 1 -3 2 -1 -1 -1 -1 0 1 2 2 -1 -1 -1 -4 6 2 0 -0 -1 -1 0 1 0
12 -9 -14 -4 5 5 -5 3 -3 2 -5 -1 -1 -2 -2 -2 -1 -2 -2 1 1 1 2 0 -0 -0 0 7 -3 0 -1 -1 -3 -1 2 0 5 -8 -3 1 -3 3 -1 -3 0
-21 -17 13 -16 -11 4 1 2 0 -1 -1 -0 -2 -2 1 -0 1 -1 -1 2 1 1 1 -1 1 -1 -1 0 0 -1 -1 -2 -3 5 -9 11 2 1 -3 -3 -3 -2 3 1 3
-5 -27 -5 9 -1 2 0 -6 5 5 0 4 -1 -0 1 0 3 1 -1 1 0 1 -1 1 -2 0 0 -1 -1 -3 -3 -3 -0 2 -2 0 -1 -0 -2 -5 1 -2 2 2 1
24 -8 3 7 1 -2 -1 5 8 1 3 -7 -2 -3 0 -1 1 0 1 1 2 -1 -0 0 1 -0 -1 1 -2 -5 5 2 1 2 1 -2 3 -11 -0 0 2 -1 2 1 1
Height
5817 5815 5814 5812 5809 5806 5804 5799 5791 5787 5784 5781 5776 5773 5770 5768 5767 5764 5763 5763 5762 5764 5765 5766 5767 5770 5774 5780 5785 5791 5795 5800 5804 5799 5793 5788 5793 5794 5797 5794 5794 5787 5793 5793 5795
5811 5809 5809 5807 5806 5801 5798 5794 5788 5783 5780 5777 5773 5769 5767 5766 5764 5762 5762 5759 5759 5761 5763 5764 5766 5769 5773 5779 5784 5790 5795 5802 5796 5792 5784 5790 5789 5791 5796 5795 5793 5791 5790 5791 5793
5806 5804 5804 5802 5800 5797 5793 5789 5783 5779 5776 5772 5769 5766 5766 5764 5762 5760 5758 5756 5758 5760 5761 5763 5766 5768 5772 5778 5783 5788 5792 5791 5788 5788 5788 5787 5790 5788 5791 5788 5784 5785 5788 5790 5792
5801 5799 5798 5797 5795 5793 5788 5785 5780 5775 5772 5770 5766 5764 5764 5762 5761 5758 5757 5757 5758 5759 5760 5762 5765 5768 5773 5778 5781 5787 5787 5791 5793 5790 5790 5788 5787 5789 5787 5774 5773 5788 5789 5792 5793
5795 5794 5793 5792 5790 5789 5785 5780 5776 5772 5768 5767 5764 5763 5762 5761 5758 5757 5756 5757 5757 5758 5760 5761 5765 5768 5773 5776 5780 5783 5785 5788 5789 5790 5790 5787 5789 5789 5784 5786 5788 5788 5790 5793 5794
5790 5789 5788 5788 5786 5784 5781 5775 5772 5768 5765 5763 5761 5760 5760 5759 5757 5756 5756 5756 5757 5757 5758 5761 5763 5766 5770 5774 5778 5781 5784 5785 5786 5787 5788 5790 5790 5789 5791 5789 5789 5790 5792 5793 5793
5784 5783 5783 5783 5780 5780 5776 5771 5768 5765 5762 5760 5759 5758 5758 5758 5756 5756 5756 5755 5756 5756 5757 5761 5763 5766 5770 5775 5777 5780 5783 5784 5785 5786 5786 5789 5791 5790 5790 5790 5791 5791 5793 5793 5794
5777 5777 5777 5778 5776 5774 5773 5768 5764 5762 5759 5759 5758 5757 5755 5755 5755 5755 5755 5755 5755 5756 5759 5762 5765 5769 5772 5775 5777 5780 5783 5786 5784 5786 5789 5790 5792 5791 5791 5791 5791 5792 5793 5794 5795
5771 5772 5772 5773 5772 5769 5768 5764 5760 5759 5757 5757 5756 5755 5755 5754 5755 5755 5755 5756 5757 5758 5760 5763 5766 5770 5773 5774 5779 5781 5785 5787 5787 5788 5790 5792 5791 5791 5791 5792 5792 5792 5793 5794 5795
5764 5765 5766 5767 5767 5765 5763 5760 5756 5756 5755 5755 5755 5755 5754 5755 5755 5755 5757 5757 5759 5760 5762 5764 5767 5770 5773 5776 5781 5784 5787 5789 5789 5787 5790 5793 5791 5791 5792 5793 5793 5792 5793 5794 5795
5758 5759 5761 5761 5761 5760 5759 5756 5755 5754 5753 5754 5753 5752 5753 5754 5754 5755 5757 5758 5760 5762 5763 5764 5768 5771 5774 5776 5780 5786 5788 5790 5789 5788 5790 5792 5790 5791 5792 5792 5793 5793 5794 5794 5794
5751 5753 5755 5755 5756 5756 5754 5752 5750 5751 5751 5751 5750 5751 5752 5754 5755 5756 5757 5759 5762 5765 5765 5767 5769 5771 5775 5777 5781 5785 5788 5788 5786 5787 5788 5790 5792 5790 5791 5791 5792 5792 5792 5793 5793
5744 5746 5748 5749 5751 5752 5750 5748 5747 5747 5749 5748 5747 5749 5750 5753 5754 5757 5758 5761 5762 5764 5765 5765 5771 5773 5776 5778 5781 5784 5787 5784 5788 5788 5789 5791 5792 5789 5789 5790 5790 5790 5791 5791 5791
5735 5738 5741 5744 5747 5747 5745 5744 5744 5745 5746 5745 5744 5746 5747 5749 5752 5754 5756 5760 5761 5765 5766 5766 5769 5772 5775 5779 5781 5782 5784 5784 5787 5787 5788 5788 5792 5786 5789 5789 5789 5790 5790 5789 5789
5725 5729 5733 5737 5740 5741 5741 5740 5740 5742 5743 5740 5740 5742 5743 5747 5751 5752 5754 5757 5759 5764 5766 5767 5771 5774 5777 5774 5780 5778 5781 5784 5785 5786 5781 5787 5789 5784 5785 5789 5789 5788 5787 5787 5786
5717 5721 5727 5732 5734 5735 5735 5736 5736 5739 5736 5737 5738 5739 5742 5744 5747 5751 5753 5756 5758 5762 5765 5764 5771 5773 5774 5776 5777 5779 5781 5782 5783 5786 5786 5786 5785 5791 5783 5786 5785 5785 5784 5783 5782
5708 5713 5719 5722 5726 5729 5730 5732 5732 5732 5734 5735 5737 5739 5742 5744 5746 5749 5753 5755 5759 5763 5766 5768 5769 5771 5773 5775 5775 5777 5780 5782 5785 5785 5784 5782 5784 5785 5784 5777 5780 5780 5779 5779 5778
5697 5704 5710 5716 5718 5721 5724 5727 5726 5729 5730 5733 5736 5738 5742 5744 5746 5749 5752 5755 5759 5762 5764 5769 5770 5769 5771 5773 5776 5775 5780 5781 5779 5782 5784 5780 5781 5784 5780 5778 5778 5776 5775 5775 5774
5687 5694 5702 5709 5712 5715 5719 5720 5724 5727 5729 5732 5735 5737 5741 5742 5746 5749 5752 5758 5759 5760 5761 5767 5763 5766 5768 5769 5772 5774 5775 5776 5777 5777 5778 5779 5779 5777 5776 5774 5773 5773 5772 5771 5771
5677 5686 5694 5700 5705 5708 5712 5718 5719 5722 5727 5730 5734 5737 5740 5742 5745 5747 5751 5754 5755 5757 5760 5763 5765 5764 5765 5767 5769 5770 5771 5774 5773 5773 5773 5777 5776 5776 5772 5771 5771 5770 5770 5769 5768
5666 5675 5682 5690 5696 5700 5706 5715 5715 5721 5725 5730 5734 5736 5739 5742 5744 5747 5752 5751 5752 5755 5757 5759 5761 5760 5762 5764 5766 5767 5767 5769 5769 5770 5770 5771 5774 5770 5770 5769 5769 5768 5767 5766 5764
5654 5665 5673 5681 5687 5694 5702 5708 5712 5718 5724 5728 5731 5734 5737 5740 5742 5745 5747 5749 5750 5752 5754 5755 5757 5756 5759 5759 5761 5762 5764 5765 5766 5767 5767 5767 5769 5767 5766 5766 5766 5765 5763 5761 5759
5643 5654 5662 5674 5680 5688 5698 5703 5707 5714 5720 5726 5729 5732 5735 5738 5740 5742 5743 5745 5747 5749 5750 5752 5753 5754 5755 5758 5759 5760 5761 5762 5762 5763 5765 5765 5765 5763 5763 5762 5761 5759 5757 5755 5753
5632 5642 5653 5666 5674 5683 5691 5698 5703 5710 5716 5722 5726 5729 5733 5734 5736 5737 5739 5741 5742 5744 5746 5747 5749 5750 5753 5756 5754 5756 5757 5758 5758 5760 5761 5762 5761 5760 5758 5757 5755 5754 5750 5747 5745
5618 5635 5650 5655 5665 5675 5685 5695 5700 5706 5712 5718 5723 5726 5729 5730 5731 5732 5734 5736 5737 5739 5741 5743 5744 5745 5746 5748 5750 5751 5753 5754 5755 5758 5757 5760 5756 5756 5752 5749 5748 5746 5744 5740 5736
5612 5626 5642 5653 5662 5670 5679 5686 5696 5705 5710 5716 5721 5723 5725 5726 5728 5729 5730 5732 5733 5735 5736 5738 5739 5741 5743 5745 5746 5747 5749 5751 5752 5752 5752 5752 5750 5749 5745 5742 5740 5737 5734 5731 5726
5604 5620 5633 5644 5654 5664 5673 5681 5691 5699 5706 5710 5716 5720 5722 5723 5724 5725 5726 5728 5729 5731 5732 5733 5736 5737 5739 5741 5741 5743 5746 5746 5746 5746 5745 5743 5744 5739 5736 5733 5731 5727 5723 5719 5715